GLOBALSTAR M028 [+]

Last updated on Wed May 04 2016 15:39:28 GMT+0000 (Coordinated Universal Time)

1 25875U 99041D 16125.28490598 -.00000080 00000-0 13649-3 0 9995 2 25875 51.9641 43.9890 0064143 39.7391 320.8144 12.50469727773471
UTC large
Height (km)
Speed (km/s)
/
Latitude / Longitude
Inclination (degrees)
Orbital Period (minutes)
Azimuth
Elevation
Range (km)
Doppler Factor

Next 0 passes for location: London (51.5072 / 0.1276)

Sorry there are no passes over London.